Flag for Colombia Weather past 2 weeks in Manizales, Colombia

Now
66 °F

Passing clouds.


Feels Like: 66 °F
Forecast: 55 / 73 °F
Wind: 7 mph from East

Location: Pereira / Matecana

Current Time: Oct 21, 2014 at 2:43:02 AM

Latest Report: Oct 21, 2014 at 12:00 AM


Visibility: N/A

Pressure: 30.12 "Hg

Humidity: 88%

Dew point: 63 °F

Location of ManizalesLocation

Historic Weather in Manizales — Graph

°F

Manizales temperature yesterday

Maximum temperature yesterday: 79 °F (at 2:00 PM)
Minimum temperature yesterday: 64 °F (at 5:00 AM)
Average temperature yesterday: 69 °F

Past Weeks' High & Low Weather Summary

 TemperatureHumidityPressure
High82 °F (Oct 6, 3:00 PM)100% (Oct 8, 10:00 PM)30.23 "Hg (Oct 8, 10:00 PM)
Low63 °F (Oct 9, 1:00 AM)45% (Oct 16, 4:00 PM)29.94 "Hg (Oct 6, 4:00 PM)
Average70 °F81%30.10 "Hg
* Reported Midnight between Oct 5 and Oct 6 — Midnight between Oct 20 and Oct 21, Manizales, Weather by CustomWeather, © 2014

Note: Actual official high and low records may vary slightly from our data, if they occured in-between our weather recording intervals... More about our weather records

Advertising

Manizales weather history for previous 24 hours

 ConditionsComfort  
Time TempWeatherWind HumidityBarometerVisibility
12:00 AM
Oct 21
66 °FPassing clouds.7 mph88%30.12 "HgN/A
11:00 PM
Oct 20
66 °FPassing clouds.6 mph88%30.13 "HgN/A
10:00 PM66 °FPassing clouds.3 mph88%30.15 "HgN/A
9:00 PM68 °FPassing clouds.5 mph83%30.12 "HgN/A
8:00 PM68 °FPassing clouds.2 mph83%30.10 "HgN/A
7:00 PM68 °FPassing clouds.7 mph83%30.06 "HgN/A
6:00 PM66 °FScattered showers. Passing clouds.5 mph88%30.03 "HgN/A
5:00 PM66 °FScattered clouds.6 mph88%30.02 "HgN/A
4:00 PM66 °FLight rain. Partly sunny.6 mph88%30.00 "HgN/A
3:00 PM68 °FThunderstorms. Scattered clouds.8 mph88%30.01 "Hg6 mi
2:00 PM79 °FThunderstorms. Scattered clouds.5 mph65%30.04 "Hg6 mi
1:00 PM77 °FScattered clouds.6 mph69%30.07 "HgN/A
12:00 PM77 °FScattered clouds.6 mph69%30.10 "HgN/A
11:00 AM75 °FScattered clouds.7 mph69%30.13 "HgN/A
10:00 AM75 °FScattered clouds.5 mph69%30.16 "HgN/A
9:00 AM70 °FPartly sunny.6 mph83%30.17 "HgN/A
8:00 AM70 °FPartly sunny.3 mph78%30.16 "HgN/A
7:00 AM66 °FScattered clouds.2 mph88%30.15 "HgN/A
6:00 AM64 °FFog.2 mph94%30.14 "Hg5 mi
5:00 AM64 °FFog.No wind94%30.09 "Hg4 mi
Weather by CustomWeather, © 2014

See weather overviewHow to use our weather pages